Back to catalog

CZ-3B DEB

AliveHEO
NORAD 42473·DEBRIS·🇨🇳 China

Launched Dec 19, 2011 from Xichang Satellite Launch Center

Loading…

Next Passes (next 24 hours)

TLE

FreshSource: Space-Track

Epoch: Sep 14, 2026, 11:33 UTC

1 42473U 11077AN  26257.48139312 -.00000247  00000-0  00000-0 0  9993
2 42473  23.5498  46.5227 7203475 132.8936 315.9442  1.69257970 64609

Track CZ-3B DEB in real time with AllMySat

Download on the App Store